Weather History for Rugby, ND

Change the Weather History Date:

Wednesday, January 30, 2013

  Actual Average Record
Temperature  
Mean Temperature -6 °F -  
Max Temperature 5 °F 16 °F 42 °F (1964)
Min Temperature -18 °F -3 °F -38 °F (1950)
Degree Days  
Heating Degree Days 72    
Moisture  
Dew Point -16 °F    
Average Humidity 76    
Maximum Humidity 92    
Minimum Humidity 70    
Precipitation  
Precipitation 0.08 in - - ()
Sea Level Pressure  
Sea Level Pressure 29.95 in    
Wind  
Wind Speed 20 mph (NW)    
Max Wind Speed 24 mph    
Max Gust Speed 28 mph    
Visibility 8 miles    
Events Rain , Snow    
Averages and records for this station are not official NWS values.
T = Trace of Precipitation, MM = Missing Value Source: NWS Daily Summary

Daily Weather History Graph

Daily Weather History Graph

Search for Another Location

Airport:

Trip Planner

Search our weather history database for the weather conditions in past years. The results will help you decide how hot, cold, wet, or windy it might be!

Date:

Astronomy

Jan. 30, 2013 Rise Set
Actual Time 8:11 AM CST 5:36 PM CST
Civil Twilight 7:37 AM CST 6:10 PM CST
Nautical Twilight 6:59 AM CST 6:47 PM CST
Astronomical Twilight 6:23 AM CST 7:24 PM CST
Moon 10:01 PM CST (1/30) 9:18 AM CST (1/30)
Length of Visible Light 10h 32m
Length of Day
9h 25m
Waning Gibbous, 87% of the Moon is Illuminated
Jan 30
Waning Gibbous
Feb 3
Last Quarter
Feb 10
New
Feb 17
First Quarter
Feb 25
Full

Hourly Weather History & Observations

Time (CST) Temp. Windchill Dew Point Humidity Pressure Visibility Wind Dir Wind Speed Gust Speed Precip Events Conditions
12:15 AM 5.0 °F -17.1 °F 1.4 °F 85% 30.01 in 5.0 mi WNW 24.2 mph - N/A Rain Light Freezing Rain
12:35 AM 5.0 °F -15.2 °F -0.4 °F 78% 30.01 in 8.0 mi NW 19.6 mph 26.5 mph N/A Rain Light Freezing Rain
12:55 AM 3.2 °F -18.1 °F -0.4 °F 85% 30.01 in 6.0 mi WNW 20.7 mph 27.6 mph N/A Rain Light Freezing Rain
1:15 AM 1.4 °F -21.0 °F -0.4 °F 92% 30.01 in 6.0 mi WNW 21.9 mph 26.5 mph N/A Rain Light Freezing Rain
1:35 AM 1.4 °F -19.9 °F -2.2 °F 85% 30.00 in 5.0 mi WNW 19.6 mph 27.6 mph N/A Rain Light Freezing Rain
1:55 AM 1.4 °F -21.0 °F -2.2 °F 85% 29.99 in 5.0 mi NW 21.9 mph - N/A Snow Light Snow
2:15 AM -0.4 °F -22.8 °F -2.2 °F 92% 29.99 in 1.5 mi WNW 20.7 mph - 0.02 in Snow Light Snow
2:35 AM -0.4 °F -24.3 °F -4.0 °F 85% 29.98 in 1.8 mi NW 24.2 mph - 0.06 in Snow Light Snow
2:55 AM -0.4 °F -23.3 °F -4.0 °F 85% 29.98 in 2.0 mi WNW 21.9 mph - 0.08 in Snow Light Snow
3:15 AM -0.4 °F -22.8 °F -5.8 °F 78% 29.97 in 4.0 mi WNW 20.7 mph - N/A Rain Light Freezing Rain
3:35 AM -2.2 °F -26.2 °F -7.6 °F 78% 29.97 in 5.0 mi WNW 23.0 mph - N/A Rain Light Freezing Rain
3:55 AM -2.2 °F -25.2 °F -7.6 °F 78% 29.97 in 6.0 mi WNW 20.7 mph 25.3 mph N/A Rain Light Freezing Rain
4:15 AM -2.2 °F -25.2 °F -7.6 °F 78% 29.96 in 5.0 mi NW 20.7 mph 26.5 mph N/A Rain Light Freezing Rain
4:35 AM -2.2 °F -24.7 °F -7.6 °F 78% 29.96 in 6.0 mi WNW 19.6 mph 27.6 mph N/A   Haze
4:55 AM -4.0 °F -28.6 °F -9.4 °F 78% 29.96 in 5.0 mi WNW 23.0 mph - N/A   Haze
5:15 AM -4.0 °F -26.4 °F -9.4 °F 78% 29.96 in 9.0 mi WNW 18.4 mph - N/A   Overcast
5:35 AM -4.0 °F -24.5 °F -9.4 °F 78% 29.96 in 8.0 mi WNW 15.0 mph 23.0 mph N/A Rain Light Freezing Rain
5:55 AM -4.0 °F -27.0 °F -11.2 °F 71% 29.95 in 6.0 mi WNW 19.6 mph - N/A Rain Light Freezing Rain
6:15 AM -5.8 °F -27.5 °F -11.2 °F 77% 29.95 in 9.0 mi WNW 16.1 mph - N/A   Overcast
6:35 AM -5.8 °F -28.8 °F -11.2 °F 77% 29.95 in 10.0 mi WNW 18.4 mph - N/A   Overcast
6:55 AM -7.6 °F -31.7 °F -11.2 °F 84% 29.94 in 6.0 mi WNW 19.6 mph - N/A   Haze
7:15 AM -7.6 °F -32.9 °F -13.0 °F 77% 29.94 in 5.0 mi WNW 21.9 mph - N/A   Haze
7:35 AM -7.6 °F -33.4 °F -13.0 °F 77% 29.95 in 6.0 mi WNW 23.0 mph 27.6 mph N/A   Haze
7:55 AM -9.4 °F -35.2 °F -13.0 °F 84% 29.95 in 5.0 mi WNW 21.9 mph - N/A   Haze
8:15 AM -9.4 °F -34.7 °F -14.8 °F 77% 29.95 in 9.0 mi WNW 20.7 mph - N/A   Overcast
8:35 AM -11.2 °F -35.2 °F -16.6 °F 77% 29.95 in 10.0 mi WNW 17.3 mph - N/A   Mostly Cloudy
8:55 AM -11.2 °F -35.8 °F -16.6 °F 77% 29.95 in 10.0 mi WNW 18.4 mph - N/A   Partly Cloudy
9:15 AM -11.2 °F -35.8 °F -18.4 °F 70% 29.94 in 10.0 mi WNW 18.4 mph - N/A   Clear
9:35 AM -11.2 °F -35.2 °F -18.4 °F 70% 29.95 in 10.0 mi WNW 17.3 mph - N/A   Clear
9:55 AM -13.0 °F -39.4 °F -18.4 °F 77% 29.94 in 9.0 mi WNW 20.7 mph - N/A   Clear
10:15 AM -13.0 °F -38.2 °F -20.2 °F 70% 29.95 in 10.0 mi NW 18.4 mph - N/A   Clear
10:35 AM -13.0 °F -37.5 °F -20.2 °F 70% 29.94 in 8.0 mi NW 17.3 mph - N/A   Clear
10:55 AM -13.0 °F -38.2 °F -18.4 °F 77% 29.94 in 4.0 mi NW 18.4 mph - N/A   Haze
11:15 AM - - - N/A% 29.93 in 8.0 mi WNW 17.3 mph - N/A   Partly Cloudy
11:35 AM - - - N/A% 29.93 in 10.0 mi NW 16.1 mph - N/A   Clear
11:55 AM -13.0 °F -38.2 °F -18.4 °F 77% 29.93 in 9.0 mi NW 18.4 mph - N/A   Clear
12:15 PM -13.0 °F -38.2 °F -18.4 °F 77% 29.92 in 8.0 mi WNW 18.4 mph - N/A   Scattered Clouds
12:35 PM -13.0 °F -39.4 °F -18.4 °F 77% 29.92 in 5.0 mi NW 20.7 mph - N/A   Haze
12:55 PM -13.0 °F -38.8 °F -18.4 °F 77% 29.91 in 8.0 mi WNW 19.6 mph - N/A   Partly Cloudy
1:15 PM -13.0 °F -38.8 °F -18.4 °F 77% 29.91 in 7.0 mi WNW 19.6 mph - N/A   Clear
1:35 PM -13.0 °F -38.8 °F -18.4 °F 77% 29.90 in 8.0 mi NW 19.6 mph - N/A   Clear
1:55 PM - - - N/A% 29.90 in 7.0 mi NW 21.9 mph 25.3 mph N/A   Clear
2:15 PM -11.2 °F -38.7 °F -18.4 °F 70% 29.89 in 4.0 mi NW 24.2 mph - N/A   Haze
2:35 PM -13.0 °F -40.6 °F -18.4 °F 77% 29.89 in 8.0 mi NW 23.0 mph - N/A   Clear
2:55 PM -13.0 °F -38.8 °F -20.2 °F 70% 29.89 in 8.0 mi NW 19.6 mph - N/A   Clear
3:15 PM -13.0 °F -40.0 °F -20.2 °F 70% 29.89 in 10.0 mi NW 21.9 mph 26.5 mph N/A   Clear
3:35 PM -13.0 °F -39.4 °F -20.2 °F 70% 29.89 in 10.0 mi WNW 20.7 mph - N/A   Clear
3:55 PM -13.0 °F -39.4 °F -20.2 °F 70% 29.90 in 10.0 mi NW 20.7 mph - N/A   Clear
4:15 PM -13.0 °F -39.4 °F -20.2 °F 70% 29.90 in 10.0 mi NW 20.7 mph 25.3 mph N/A   Clear
4:35 PM -13.0 °F -39.4 °F -20.2 °F 70% 29.91 in 10.0 mi NW 20.7 mph - N/A   Clear
4:55 PM -13.0 °F -38.8 °F -20.2 °F 70% 29.91 in 10.0 mi NW 19.6 mph - N/A   Clear
5:15 PM -14.8 °F -37.5 °F -22.0 °F 70% 29.92 in 10.0 mi NW 13.8 mph - N/A   Clear
5:35 PM -14.8 °F -38.3 °F -22.0 °F 70% 29.92 in 10.0 mi NW 15.0 mph - N/A   Clear
6:15 PM -16.6 °F -39.8 °F -22.0 °F 76% 29.93 in 10.0 mi NW 13.8 mph - N/A   Clear
6:35 PM -16.6 °F -40.6 °F -22.0 °F 76% 29.94 in 10.0 mi NW 15.0 mph - N/A   Clear
6:55 PM -16.6 °F -41.4 °F -22.0 °F 76% 29.95 in 10.0 mi NW 16.1 mph - N/A   Clear
7:15 PM -16.6 °F -39.8 °F -22.0 °F 76% 29.94 in 10.0 mi NW 13.8 mph - N/A   Clear
7:35 PM -16.6 °F -40.6 °F -23.8 °F 70% 29.94 in 10.0 mi NW 15.0 mph - N/A   Partly Cloudy
7:55 PM -16.6 °F -39.8 °F -23.8 °F 70% 29.94 in 10.0 mi NW 13.8 mph - N/A   Partly Cloudy
8:15 PM -16.6 °F -39.8 °F -23.8 °F 70% 29.94 in 10.0 mi NW 13.8 mph - N/A   Mostly Cloudy
8:35 PM -16.6 °F -41.4 °F -22.0 °F 76% 29.95 in 10.0 mi NW 16.1 mph - N/A   Overcast
8:55 PM -16.6 °F -42.9 °F -22.0 °F 76% 29.94 in 10.0 mi NW 18.4 mph - N/A   Overcast
9:15 PM -16.6 °F -42.1 °F -23.8 °F 70% 29.95 in 10.0 mi NW 17.3 mph - N/A   Scattered Clouds
9:35 PM -18.4 °F -43.7 °F -25.6 °F 70% 29.95 in 10.0 mi NW 16.1 mph - N/A   Clear
9:55 PM -18.4 °F -44.5 °F -25.6 °F 70% 29.96 in 10.0 mi NW 17.3 mph - N/A   Clear
10:15 PM -18.4 °F -43.7 °F -25.6 °F 70% 29.96 in 10.0 mi NW 16.1 mph - N/A   Clear
10:35 PM -18.4 °F -43.7 °F -25.6 °F 70% 29.97 in 10.0 mi NW 16.1 mph - N/A   Scattered Clouds
10:55 PM -18.4 °F -45.2 °F -25.6 °F 70% 29.97 in 10.0 mi NW 18.4 mph - N/A   Mostly Cloudy
11:15 PM -18.4 °F -46.5 °F -25.6 °F 70% 29.97 in 10.0 mi NW 20.7 mph - N/A   Mostly Cloudy
11:35 PM -18.4 °F -47.1 °F -25.6 °F 70% 29.98 in 9.0 mi NW 21.9 mph 25.3 mph N/A Snow Light Snow
11:55 PM -18.4 °F -47.1 °F -25.6 °F 70% 29.98 in 7.0 mi NW 21.9 mph - N/A Snow Light Snow